EW4171 Weather Reports


Display with metric or nautical units.
time (UTC)temp
F
wind
direction
speed
MPH
gust
MPH
rain 1hr
in
rain 24hr
in
rain mn
in
humidity
%
barometer
mb
20260510231539 54 223 1.0 12.0 0.00 0.00 0.00 57 1015.1
20260510230040 55 216 5.0 16.0 0.00 0.00 0.00 54 1014.7
20260510224537 57 224 4.0 15.0 0.00 0.00 0.00 51 1014.6
20260510223043 58 160 7.0 14.0 0.00 0.00 0.00 50 1014.4
20260510221535 57 300 2.0 15.0 0.00 0.00 0.00 53 1014.5
20260510220034 55 219 5.0 11.0 0.00 0.00 0.00 54 1014.5
20260510214632 56 231 3.0 11.0 0.00 0.00 0.00 50 1014.4
20260510213034 57 214 3.0 10.0 0.00 0.00 0.00 54 1014.6
20260510211531 56 210 3.0 16.0 0.00 0.00 0.00 53 1014.6
20260510210030 57 273 2.0 7.0 0.00 0.00 0.00 51 1014.7
20260510204530 57 230 2.0 12.0 0.00 0.00 0.00 52 1014.7
20260510203029 56 274 4.0 17.0 0.00 0.00 0.00 53 1014.8
20260510201529 56 256 0.0 11.0 0.00 0.00 0.00 57 1014.6
20260510200033 55 318 3.0 10.0 0.00 0.00 0.00 53 1014.6
20260510194530 57 314 1.0 12.0 0.00 0.00 0.00 51 1014.6
20260510193027 55 228 6.0 16.0 0.00 0.00 0.00 54 1014.5
20260510191526 53 212 6.0 12.0 0.00 0.00 0.00 56 1014.6
20260510190028 53 305 5.0 9.0 0.00 0.00 0.00 55 1014.5
20260510184525 54 232 6.0 14.0 0.00 0.00 0.00 52 1014.3
20260510183028 54 264 4.0 9.0 0.00 0.00 0.00 50 1014.4
20260510181524 56 282 5.0 8.0 0.00 0.00 0.00 46 1014.2
20260510180023 56 47 1.0 6.0 0.00 0.00 0.00 46 1014.2
20260510174523 56 335 4.0 11.0 0.00 0.00 0.00 46 1014.1
20260510173021 57 210 2.0 5.0 0.00 0.00 0.00 38 1014.0
20260510171519 56 226 3.0 7.0 0.00 0.00 0.00 42 1013.8
20260510170021 55 293 1.0 7.0 0.00 0.00 0.00 49 1013.9
20260510164514 55 13 2.0 9.0 0.00 0.00 0.00 50 1013.9
20260510163013 55 301 5.0 9.0 0.00 0.00 0.00 51 1013.7
20260510161513 54 53 4.0 9.0 0.00 0.00 0.00 53 1013.6
20260510160008 53 53 4.0 8.0 0.00 0.00 0.00 55 1013.7
20260510154504 51 47 2.0 5.0 0.00 0.00 0.00 57 1013.9
20260510153059 50 13 2.0 4.0 0.00 0.00 0.00 61 1014.2
20260510151557 48 291 1.0 3.0 0.00 0.00 0.00 67 1014.3
20260510150051 46 314 0.0 0.0 0.00 0.00 0.00 71 1014.7
20260510144549 43 9 0.0 3.0 0.00 0.00 0.00 77 1015.1
20260510143045 40 37 1.0 4.0 0.00 0.00 0.00 83 1015.4
20260510141547 39 211 0.0 1.0 0.00 0.00 0.00 85 1015.5
20260510140044 37 211 0.0 0.0 0.00 0.00 0.00 87 1015.3
20260510134542 34 211 0.0 0.0 0.00 0.00 0.00 89 1015.5
20260510133040 32 211 0.0 0.0 0.00 0.00 0.00 89 1015.3
20260510131537 31 211 0.0 0.0 0.00 0.00 0.00 89 1014.8
20260510130045 31 211 0.0 0.0 0.00 0.00 0.00 88 1014.4
20260510124531 31 211 0.0 0.0 0.00 0.00 0.00 88 1014.0
20260510123029 31 211 0.0 1.0 0.00 0.00 0.00 87 1013.8
20260510121526 32 211 0.0 0.0 0.00 0.00 0.00 87 1013.6
20260510120029 33 211 0.0 0.0 0.00 0.00 0.00 85 1013.5
20260510114520 34 211 0.0 0.0 0.00 0.00 0.00 84 1013.5
20260510113017 34 211 0.0 1.0 0.00 0.00 0.00 84 1013.6
20260510111516 35 211 0.0 1.0 0.00 0.00 0.00 83 1013.6
20260510110026 36 211 0.0 0.0 0.00 0.00 0.00 83 1013.7
20260510104510 36 211 0.0 0.0 0.00 0.00 0.00 82 1013.5
20260510103007 37 211 0.0 0.0 0.00 0.00 0.00 80 1013.4
20260510101507 37 211 0.0 0.0 0.00 0.00 0.00 80 1013.4
20260510100004 38 211 0.0 1.0 0.00 0.00 0.00 79 1013.5
20260510094501 38 211 0.0 0.0 0.00 0.00 0.00 78 1013.5
20260510093112 39 211 0.0 1.0 0.00 0.00 0.00 77 1013.3
20260510091557 40 209 0.0 1.0 0.00 0.00 0.00 75 1013.4
20260510090054 40 94 0.0 1.0 0.00 0.00 0.00 73 1013.5
20260510084551 41 41 0.0 3.0 0.00 0.00 0.00 72 1013.5
20260510083059 42 327 0.0 6.0 0.00 0.00 0.00 69 1013.3
20260510081548 43 191 0.0 2.0 0.00 0.00 0.00 63 1013.3
20260510080047 43 304 0.0 8.0 0.00 0.00 0.00 63 1012.9
20260510074545 41 140 0.0 1.0 0.00 0.00 0.00 66 1012.5
20260510073044 42 140 0.0 1.0 0.00 0.00 0.00 67 1012.7
20260510071544 42 140 0.0 1.0 0.00 0.00 0.00 66 1012.6
20260510070045 42 140 0.0 2.0 0.00 0.00 0.00 63 1012.7
20260510064541 43 140 0.0 2.0 0.00 0.00 0.00 62 1012.7
20260510063037 42 229 0.0 3.0 0.00 0.00 0.00 65 1012.8
20260510061536 41 229 0.0 2.0 0.00 0.00 0.00 69 1012.8
20260510060036 41 229 0.0 3.0 0.00 0.00 0.00 68 1012.4
20260510054534 41 219 1.0 2.0 0.00 0.00 0.00 67 1012.3
20260510053032 42 185 0.0 1.0 0.00 0.00 0.00 67 1012.4
20260510051530 43 183 0.0 1.0 0.00 0.00 0.00 65 1012.2
20260510050030 43 138 0.0 2.0 0.00 0.00 0.00 63 1012.0
20260510044529 43 174 0.0 0.0 0.00 0.00 0.00 67 1012.0
20260510043029 43 174 0.0 0.0 0.00 0.00 0.00 64 1011.9
20260510041528 44 174 0.0 1.0 0.00 0.00 0.00 64 1011.9
20260510040028 44 174 0.0 2.0 0.00 0.00 0.00 60 1011.8
20260510034528 44 174 0.0 1.0 0.00 0.00 0.00 60 1011.7
20260510033027 45 293 0.0 1.0 0.00 0.00 0.00 61 1011.6
20260510031527 46 294 0.0 1.0 0.00 0.00 0.00 57 1011.3
20260510030027 47 294 0.0 0.0 0.00 0.00 0.00 55 1010.9
20260510024527 48 294 0.0 0.0 0.00 0.00 0.00 55 1010.7
20260510023027 49 294 0.0 1.0 0.00 0.00 0.00 53 1010.5
20260510021529 50 294 0.0 0.0 0.00 0.00 0.00 50 1010.1
20260510020025 50 294 0.0 1.0 0.00 0.00 0.00 47 1010.3
20260510014524 51 14 0.0 5.0 0.00 0.00 0.00 46 1010.3
20260510013023 51 33 4.0 11.0 0.00 0.00 0.00 44 1010.1
20260510011523 53 20 7.0 17.0 0.00 0.00 0.00 42 1010.2
20260510010022 54 37 4.0 7.0 0.00 0.00 0.00 39 1009.3
20260510004522 55 39 0.0 3.0 0.00 0.00 0.00 36 1008.9
20260510003021 55 21 2.0 12.0 0.00 0.00 0.00 36 1008.9
20260510001520 56 39 9.0 14.0 0.00 0.00 0.00 33 1008.9
20260510000020 56 351 0.0 3.0 0.00 0.00 0.00 33 1008.4
20260509234534 57 6 0.0 4.0 0.00 0.00 0.00 31 1008.3
20260509233019 57 22 1.0 6.0 0.00 0.00 0.00 30 1008.1